Skip Page Navigation
NASA JPL Caltech
NASA Logo - Jet Propulsion Laboratory + View the NASA Portal
+ Near-Earth Object (NEO) Program
Search JPL
JPL Home Earth Solar System Stars & Galaxies Technology
JPL Solar System Dynamics
BODIES ORBITS EPHEMERIDES TOOLS PHYSICAL DATA DISCOVERY FAQ SITE MAP
JPL Small-Body Database Browser
Search: [ help ]  
(2009 DZ42)
Classification: Amor [NEO, PHA]          SPK-ID: 3448961
Ephemeris | Orbit Diagram | Orbital Elements | Physical Parameters | Close-Approach Data ]

[ hide orbit diagram ]
Orbit Diagram
Note: Make sure you have Java enabled on your browser to see the applet. This applet is provided as a 3D orbit visualization tool. The applet was implemented using 2-body methods, and hence should not be used for determining accurate long-term trajectories (over several years or decades) or planetary encounter circumstances. For accurate long-term ephemerides, please instead use our Horizons system.
Orbit Viewer

Additional Notes: the orbits shown in the applet are color coded. The planets are white lines, and the asteroid/comet is a blue line. The bright white line indicates the portion of the orbit that is above the ecliptic plane, and the darker portion is below the ecliptic plane. Likewise for the asteroid/comet orbit, the light blue indicates the portion above the ecliptic plane, and the dark blue the portion below the ecliptic plane.

Orbit Viewer applet originally written and kindly provided by Osamu Ajiki (AstroArts), and further modified by Ron Baalke (JPL).


Orbital Elements at Epoch 2456400.5 (2013-Apr-18.0) TDB
Reference: JPL 18 (heliocentric ecliptic J2000)
 Element Value Uncertainty (1-sigma)   Units 
e .5831995751487992 3.9997e-07  
a 2.446073217202795 3.2507e-07 AU
q 1.019524356147269 9.5358e-07 AU
i 13.10916658443508 6.1722e-05 deg
node 295.1784839720266 0.00015519 deg
peri 183.4530941208324 0.00043346 deg
M 34.51821396564791 9.5019e-05 deg
tp 2456266.517393841270
(2012-Dec-05.01739384)
0.00034833 JED
period 1397.341654615861
3.83
0.00027855
7.626e-07
d
yr
n .2576320535574148 5.1358e-08 deg/d
Q 3.872622078258322 5.1466e-07 AU
  Orbit Determination Parameters
   # obs. used (total)      93  
   data-arc span      1389 days (3.80 yr)  
   first obs. used      2009-02-26  
   last obs. used      2012-12-16  
   planetary ephem.      DE405  
   SB-pert. ephem.      SB405-CPV-2  
   condition code      1  
   fit RMS      .67958  
   data source      ORB  
   producer      Otto Matic  
   solution date      2012-Dec-16 18:50:02  

Additional Information
 Earth MOID = .0359153 AU 
 T_jup = 3.212 
[ show covariance matrix ]

Ephemeris | Orbit Diagram | Orbital Elements | Physical Parameters | Close-Approach Data ]

Physical Parameter Table
Parameter Symbol Value Units Sigma Reference Notes
absolute magnitude H 19.618 mag .40551 18 autocmod 2.5b

[ show close-approach data ]
Ephemeris | Orbit Diagram | Orbital Elements | Physical Parameters | Close-Approach Data ]
ABOUT SSD CREDITS/AWARDS PRIVACY/COPYRIGHT GLOSSARY LINKS
FirstGov 2013-May-24 00:28 UT
(server date/time)  
NASA Home Page
Site Manager:   Donald K. Yeomans
Webmaster  Alan B. Chamberlin